Change the Weather History Date:

Sunday, May 19, 2013

  Actual Average Record
Temperature  
Mean Temperature 72 °F -  
Max Temperature 78 °F 75 °F 95 °F (1998)
Min Temperature 65 °F 58 °F 50 °F (2003)
Cooling Degree Days 6    
Growing Degree Days 22 (Base 50)    
Moisture  
Dew Point 66 °F    
Average Humidity 89    
Maximum Humidity 100    
Minimum Humidity 67    
Precipitation  
Precipitation 1.21 in - - ()
Sea Level Pressure  
Sea Level Pressure 30.14 in    
Wind  
Wind Speed 3 mph (SSE)    
Max Wind Speed 24 mph    
Max Gust Speed 36 mph    
Visibility 8 miles    
Events Rain , Thunderstorm    
Averages and records for this station are not official NWS values.
T = Trace of Precipitation, MM = Missing Value Source: NWS Daily Summary

Daily Weather History Graph

Daily Weather History Graph

Search for Another Location

Airport or City:

Trip Planner

Search our weather history database for the weather conditions in past years. The results will help you decide how hot, cold, wet, or windy it might be!

Date:

Astronomy

May. 19, 2013 Rise Set
Actual Time 5:54 AM EDT 8:11 PM EDT
Civil Twilight 5:25 AM EDT 8:40 PM EDT
Nautical Twilight 4:49 AM EDT 9:17 PM EDT
Astronomical Twilight 4:09 AM EDT 9:56 PM EDT
Moon 2:21 PM EDT (5/19) 2:08 AM EDT (5/19)
Length of Visible Light 15h 15m
Length of Day
14h 16m
Waxing Gibbous, 65% of the Moon is Illuminated
May 19
Waxing Gibbous
May 25
Full
May 31
Last Quarter
Jun 8
New
Jun 16
First Quarter

Hourly Weather History & Observations

Time (EDT) Temp. Dew Point Humidity Pressure Visibility Wind Dir Wind Speed Gust Speed Precip Events Conditions
12:23 AM 66.2 °F 64.4 °F 94% 30.16 in 10.0 mi East 2.3 mph - N/A   Drizzle
12:58 AM 65.7 °F 64.8 °F 97% 30.17 in 10.0 mi NE 2.3 mph - 0.00 in   Drizzle
1:43 AM 66.2 °F 64.4 °F 94% 30.14 in 10.0 mi ENE 2.3 mph - N/A   Drizzle
1:48 AM 66.2 °F 64.4 °F 94% 30.14 in 9.0 mi East 2.3 mph - N/A   Drizzle
1:58 AM 66.0 °F 65.3 °F 98% 30.15 in 10.0 mi SE 2.3 mph - 0.00 in   Drizzle
2:53 AM 66.2 °F 66.2 °F 100% 30.13 in 10.0 mi ESE 2.3 mph - N/A   Drizzle
2:58 AM 66.6 °F 65.7 °F 97% 30.14 in 10.0 mi East 1.2 mph - 0.00 in   Drizzle
3:58 AM 67.1 °F 66.2 °F 97% 30.14 in 7.0 mi SSE 2.3 mph - 0.00 in   Drizzle
4:08 AM 66.2 °F 66.2 °F 100% 30.13 in 7.0 mi South 2.3 mph - N/A   Drizzle
4:23 AM 68.0 °F 66.2 °F 94% 30.13 in 10.0 mi South 2.3 mph - N/A   Drizzle
4:58 AM 67.8 °F 66.9 °F 97% 30.14 in 10.0 mi SSW 4.6 mph - 0.00 in   Drizzle
5:23 AM 68.0 °F 66.2 °F 94% 30.13 in 10.0 mi Calm Calm - N/A   Drizzle
5:38 AM 68.0 °F 66.2 °F 94% 30.14 in 10.0 mi Calm Calm - N/A   Drizzle
5:58 AM 67.8 °F 66.7 °F 96% 30.15 in 10.0 mi WSW 4.6 mph - 0.00 in   Drizzle
6:58 AM 68.0 °F 66.7 °F 96% 30.15 in 10.0 mi SSW 2.3 mph - 0.00 in   Drizzle
7:58 AM 68.4 °F 66.6 °F 94% 30.17 in 10.0 mi Variable 2.3 mph - 0.00 in   Drizzle
8:48 AM 69.8 °F 66.2 °F 88% 30.17 in 10.0 mi SSW 3.5 mph - N/A   Drizzle
8:53 AM 69.8 °F 66.2 °F 88% 30.17 in 10.0 mi SSW 2.3 mph - N/A   Drizzle
8:58 AM 69.1 °F 67.1 °F 93% 30.18 in 10.0 mi SSW 2.3 mph - 0.01 in   Drizzle
9:58 AM 70.2 °F 67.1 °F 90% 30.19 in 10.0 mi West 1.2 mph - 0.00 in   Drizzle
10:18 AM 69.8 °F 66.2 °F 88% 30.18 in 10.0 mi Calm Calm - N/A   Drizzle
10:58 AM 71.8 °F 67.8 °F 87% 30.19 in 10.0 mi SSE 1.2 mph - 0.00 in   Drizzle
11:38 AM 71.6 °F 68.0 °F 88% 30.18 in 10.0 mi ESE 2.3 mph - N/A   Drizzle
11:43 AM 71.6 °F 68.0 °F 88% 30.18 in 10.0 mi SSW 2.3 mph - N/A   Drizzle
11:58 AM 72.3 °F 67.5 °F 85% 30.19 in 10.0 mi SE 3.5 mph - 0.00 in   Drizzle
12:58 PM 74.1 °F 67.6 °F 80% 30.17 in 10.0 mi Calm Calm - 0.00 in   Drizzle
1:03 PM 73.4 °F 68.0 °F 83% 30.16 in 10.0 mi SE 3.5 mph - N/A   Drizzle
1:44 PM 75.2 °F 68.0 °F 78% 30.14 in 10.0 mi South 4.6 mph - N/A   Scattered Clouds
1:58 PM 76.5 °F 67.6 °F 74% 30.15 in 10.0 mi Variable 1.2 mph - 0.00 in   Mostly Cloudy
2:58 PM 77.4 °F 67.3 °F 71% 30.13 in 10.0 mi SE 3.5 mph - N/A   Mostly Cloudy
3:58 PM 78.3 °F 68.0 °F 71% 30.10 in 10.0 mi ESE 9.2 mph - N/A   Scattered Clouds
4:58 PM 77.0 °F 65.5 °F 67% 30.10 in 10.0 mi East 3.5 mph - N/A   Mostly Cloudy
5:58 PM 77.4 °F 66.2 °F 68% 30.10 in 10.0 mi ESE 5.8 mph - N/A   Partly Cloudy
6:52 PM 75.2 °F 68.0 °F 78% 30.09 in 10.0 mi East 4.6 mph - N/A   Light Drizzle
6:58 PM 75.6 °F 67.6 °F 76% 30.10 in 10.0 mi East 3.5 mph - 0.00 in   Light Drizzle
7:48 PM 73.4 °F 68.0 °F 83% 30.11 in 10.0 mi SW 13.8 mph 25.3 mph N/A Thunderstorm Drizzle
7:55 PM 71.6 °F 64.4 °F 78% 30.12 in 4.0 mi WSW 12.7 mph 25.3 mph N/A Rain , Thunderstorm Thunderstorms and Rain
7:58 PM 69.8 °F 64.4 °F 83% 30.12 in 2.0 mi West 15.0 mph 23.0 mph 0.01 in Rain , Thunderstorm Thunderstorms and Rain
8:03 PM 68.0 °F 64.4 °F 88% 30.10 in 0.8 mi SW 24.2 mph 35.7 mph N/A Rain , Thunderstorm Heavy Thunderstorms and Rain
8:08 PM 68.0 °F 64.4 °F 88% 30.12 in 0.2 mi ESE 8.1 mph 35.7 mph N/A Rain , Thunderstorm Heavy Thunderstorms and Rain
8:18 PM 68.0 °F 64.4 °F 88% 30.11 in 0.8 mi West 2.3 mph - N/A Rain , Thunderstorm Thunderstorms and Rain
8:23 PM 68.0 °F 64.4 °F 88% 30.11 in 3.0 mi WNW 3.5 mph - N/A Rain , Thunderstorm Light Thunderstorms and Rain
8:30 PM 66.2 °F 64.4 °F 94% 30.12 in 9.0 mi Variable 2.3 mph - N/A Rain , Thunderstorm Light Rain
8:40 PM 66.2 °F 64.4 °F 94% 30.12 in 6.0 mi SSW 4.6 mph - N/A Rain Light Rain
8:48 PM 66.2 °F 64.4 °F 94% 30.13 in 3.0 mi SSW 4.6 mph - N/A Rain , Thunderstorm Heavy Thunderstorms and Rain
8:53 PM 66.2 °F 64.4 °F 94% 30.13 in 3.0 mi SSW 3.5 mph - N/A Rain , Thunderstorm Light Thunderstorms and Rain
8:58 PM 66.7 °F 64.9 °F 94% 30.14 in 4.0 mi SSE 3.5 mph - 1.12 in Rain , Thunderstorm Light Thunderstorms and Rain
9:10 PM 66.2 °F 66.2 °F 100% 30.12 in 8.0 mi SSE 3.5 mph - N/A Rain , Thunderstorm Light Rain
9:58 PM 66.9 °F 65.5 °F 95% 30.14 in 10.0 mi SSE 3.5 mph - 0.06 in   Drizzle
10:13 PM 66.2 °F 66.2 °F 100% 30.14 in 10.0 mi SE 5.8 mph - N/A   Drizzle
10:18 PM 66.2 °F 66.2 °F 100% 30.15 in 10.0 mi ESE 4.6 mph - N/A   Drizzle
10:58 PM 67.1 °F 65.7 °F 95% 30.15 in 10.0 mi SSE 2.3 mph - 0.00 in   Drizzle
11:58 PM 68.5 °F 67.1 °F 95% 30.14 in 10.0 mi ESE 2.3 mph - 0.01 in   Drizzle